STARLINK-6071 (56132 NORAD) Tracking and Keplerian Element Data

This shows tracking and keplerian element data for the satellite.

Feedback or suggestion? Click here.




ElementValue
Catalog56132
NameSTARLINK-6071
Epoch Orbit656
Epoch Day127.25001157
Epoch Year2023
RAAN33.6948
Inclination43.001
Eccentricity0.0001596
Argument of Perigee274.4062
Mean Anonmoly343.2583
Mean Motion15.48897623
Decay Rate0.00049765
L11 56132U 23046AS 23127.25001157 .00049765 00000+0 90059-3 0 9994
L22 56132 43.0010 33.6948 0001596 274.4062 343.2583 15.48897623 6564



Live tracking and technical data element details for STARLINK-6071 (NORAD 56132). STARLINK-6071 can be tracked NOW for your location showing map with azimuth and elevation plus other details from your city location.







IsCatalogInMostPopularTable: catalog: 56132, numindb: 2
Update: records affected: 1



GetName: 56132 STARLINK-6071

Hit Count: updated at: Sat, 03 Jun 2023 18:56:06 GMT